OBJECT D, 61897

Orbit data source: Space-Track

You're viewing an Uncataloged Satellite

Recently launched and/or uncataloged satellites may have evolving metadata. Metadata may include but not limited to: Owner, Maufacturer, Bus, Motor, and Mission.

OBJECT D, 61897 is a satellite owned by Changguang WJ (CN) in SSO that was launched on Mon, 11 Nov 2024 UTC via a LIJIAN-1 launch vehicle from the Jiuquan Satellite Launch Center, China (JSC). Unknown objects in Earth's orbit typically refer to objects detected orbiting the Earth but have not yet been identified or cataloged. These objects could be anything from previously untracked satellites, spent rocket stages, debris from satellite collisions, or even natural meteoroids temporarily captured by Earth's gravity.

Loading next visibility...
Identifier
61897, 2024-205D
Orbit
SSO
Country
Flag of CNCN / PRC
Related business
None
Manufacturer
Changguang WJ
Mission
Operational Commercial Imaging
Bus & Motor
JL-1, Unknown motor
Mass
200 kg wet, 200 kg dry
Launch date (UTC)
2024-11-11 (10 months ago)
Launch vehicle
LIJIAN-1
Launch site
Jiuquan Satellite Launch Center, China (JSC)
Object type
Unknown
Shape & HBR
Box, 0.8 m
Radar Cross Section
2.000 m², Medium (>0.1 m² and < 1m²)

Expand to show TLE details & history
Last TLE update: 11 hours ago

TLE from 11 hours ago
0 OBJECT D
1 61897U 24205D   25261.30856392  .00005756  00000-0  31075-3 0  9998
2 61897  97.4421 333.6288 0011598 283.0111  76.9826 15.15061267 47084
Epoch: 2025-09-18T07:24Z
TLE epoch observation values (Epoch: 2025-09-18T07:24:19.922Z)
Latitude
-0.00006°
Longitude
-134.92622°
Altitude
522.081 km
Speed
7.603 km/s
True Right ascension
22h 14m 30s
True Declination
0° 00' 00"
Sunlit
Object was in full shadow at epoch
Visualization orbit readout
Latitude
Unknown
Longitude
Unknown
Altitude
Unknown
Speed
Unknown
Apparent Right ascension
Unknown
Apparent Declination
Unknown
Sunlit
N/A
Visualization observer readout
Local Sidereal Time
11:05:36
Azimuth
Unknown
Elevation
Unknown
Doppler factor
Unknown
Orbital elements
Apogee altitude
525.764 km
Perigee altitude
509.769 km
Semi-major axis
6,895.904 km
Eccentricity
0.00116
Inclination
97.4421°
RAAN
333.6288°
Arg. of periapsis
283.0111°
True anomaly
77.11213°
Mean anomaly
76.9826°
Eccentric anomaly
77.04736°
Mean motion
3.79015 °/min
Orbital period
94.98 mins
BSTAR
0.00031075
Loading maneuver chart data...
Computing Atmospheric mass density...
Loading historical data...
Loading historical data...
Loading historical data...
Loading historical data...
Loading historical data...
Loading historical data...
Loading historical data...

Documentation

Showing up to 5 results
|